This demonstration page uses our WeatherBlox Daily Observations layout. Learn more.

Left ArrowRight Arrow

Hourly Observations for April 25, 2020

Temp ( °F °C ) Dew Point ( °F °C ) Humidity (%) Winds ( mph kmh ) Pressure ( in mb ) Visibility ( mi km ) Precip ( " mm )
12:53 am 00:53 Clear 63 17.2 52 11.1 68 68 Calm 30.03 1017 10 16 0.00 0.00
1:53 am 01:53 Clear 61 16.1 53 11.7 75 75 Calm 30.02 1017 10 16 0.00 0.00
2:53 am 02:53 Clear 62 16.7 51 10.6 67 67 NNE 3 6 30.01 1016 10 16 0.00 0.00
3:53 am 03:53 Clear 60 15.6 52 11.1 75 75 Calm 30.01 1016 10 16 0.00 0.00
4:53 am 04:53 Clear 59 15 51 10.6 75 75 Calm 30.01 1016 10 16 0.00 0.00
5:53 am 05:53 Clear 59 15 51 10.6 75 75 Calm 30.01 1016 10 16 0.00 0.00
6:53 am 06:53 Sunny 58 14.4 52 11.1 81 81 Calm 30.01 1016 10 16 0.00 0.00
7:53 am 07:53 Sunny 61 16.1 53 11.7 75 75 Calm 30.03 1017 10 16 0.00 0.00
8:53 am 08:53 Sunny 65 18.3 54 12.2 68 68 Calm 30.04 1017 10 16 0.00 0.00
9:53 am 09:53 Sunny 71 21.7 54 12.2 55 55 SW 3 6 30.04 1017 10 16 0.00 0.00
10:53 am 10:53 Sunny 75 23.9 53 11.7 46 46 VRB 3 6 30.04 1017 10 16 0.00 0.00
11:53 am 11:53 Sunny 78 25.6 52 11.1 40 40 VRB 3 6 30.04 1017 10 16 0.00 0.00
12:53 pm 12:53 Sunny 80 26.7 51 10.6 37 37 SSE 5 7 30.01 1016 10 16 0.00 0.00
1:53 pm 13:53 Sunny 81 27.2 53 11.7 38 38 S 6 9 29.98 1015 10 16 0.00 0.00
2:53 pm 14:53 Sunny 82 27.8 52 11.1 35 35 ESE 6 9 29.97 1015 10 16 0.00 0.00
3:53 pm 15:53 Sunny 83 28.3 50 10 32 32 ESE 3 6 29.95 1014 10 16 0.00 0.00
4:53 pm 16:53 Sunny 83 28.3 47 8.3 28 28 SSE 7 11 29.93 1013 10 16 0.00 0.00
5:53 pm 17:53 Sunny 83 28.3 46 7.8 27 27 SSE 6 9 29.93 1013 10 16 0.00 0.00
6:53 pm 18:53 Sunny 82 27.8 51 10.6 34 34 Calm 29.92 1013 10 16 0.00 0.00
7:53 pm 19:53 Sunny 75 23.9 53 11.7 46 46 WNW 3 6 29.92 1013 10 16 0.00 0.00
8:53 pm 20:53 Clear 76 24.4 44 6.7 32 32 NW 6 9 29.93 1013 10 16 0.00 0.00
9:53 pm 21:53 Clear 71 21.7 49 9.4 46 46 S 8 13 29.94 1014 10 16 0.00 0.00
10:53 pm 22:53 Clear 70 21.1 51 10.6 51 51 Calm 29.94 1014 10 16 0.00 0.00
11:53 pm 23:53 Clear 68 20 48 8.9 49 49 W 3 6 29.95 1014 10 16 0.00 0.00

Powered by AerisWeather